Regional Weather Roundup
Issued by NWS

Home | Current Version | Previous Version | Graphics & Text | Print | Product List | Glossary On
Versions: 1 2 3 4 5 6 7 8 9 10 11 12 13 14 15 16 17 18 19 20 21 22 23 24 25 26 27 28 29 30 31 32 33 34 35 36 37 38 39 40 41 42 43 44 45 46 47 48 49 50
000
ASUS43 KLSX 051759
RWRMO

WEATHER SUMMARY FOR MISSOURI
NATIONAL WEATHER SERVICE SPRINGFIELD MO
1200 PM CST THU MAR 05 2015

NOTE: "FAIR" INDICATES FEW OR NO CLOUDS BELOW 12,000 FEET WITH NO
       SIGNIFICANT WEATHER AND/OR OBSTRUCTIONS TO VISIBILITY.
       CURRENT SKY AND/OR WEATHER CONDITIONS ARE NOT AVAILABLE FOR
       CHILLICOTHE AND FARMINGTON.

MOZ001>031-035>038-043-044-053-054-051900-
...NORTHERN AND WESTERN MISSOURI...

CITY           SKY/WX    TMP DP  RH WIND       PRES   REMARKS
KANSAS CTY INT FAIR      22   0  38 CALM      30.56F
6HR MIN TEMP:   6; 6HR MAX TEMP:  23;

KANSAS C DTWN  FAIR      24  -1  33 CALM      30.58F
6HR MIN TEMP:  11; 6HR MAX TEMP:  26;

LEE`S SUMMIT   FAIR      24   0  35 VRB5      30.57F WCI  18
6HR MIN TEMP:  10; 6HR MAX TEMP:  25;

ST JOSEPH      FAIR      21  -1  38 CALM      30.58F
6HR MIN TEMP:   3; 6HR MAX TEMP:  22;

CHILLICOTHE      N/A     22   2  42 NW6       30.60F WCI  14
6HR MIN TEMP:   8; 6HR MAX TEMP:  22;

KIRKSVILLE     FAIR      20   1  43 NW10      30.56S WCI   9
6HR MIN TEMP:   9; 6HR MAX TEMP:  20;


$$
MOZ066>068-077>081-088>096-101>105-051900-
...SOUTHWEST MISSOURI...

CITY           SKY/WX    TMP DP  RH WIND       PRES   REMARKS
SPRINGFIELD    FAIR      26   7  44 N9        30.54S WCI  17
6HR MIN TEMP:  12; 6HR MAX TEMP:  26;

JOPLIN         FAIR      28  11  48 VRB6      30.57S WCI  22
6HR MIN TEMP:  13; 6HR MAX TEMP:  29; 6HR PCP: TRACE;


$$
MOZ032>034-039>042-045>050-055>058-069>072-051900-
...CENTRAL MISSOURI...

CITY           SKY/WX    TMP DP  RH WIND       PRES   REMARKS
COLUMBIA       FAIR      23   9  55 VRB6      30.55F WCI  16
6HR MIN TEMP:  13; 6HR MAX TEMP:  23;

JEFFERSON CITY FAIR      24   9  52 W10       30.59S WCI  14
6HR MIN TEMP:  17; 6HR MAX TEMP:  24;

ROLLA          FAIR      24  10  55 N13       30.51R WCI  12
6HR MIN TEMP:  16; 6HR MAX TEMP:  24;

SEDALIA        FAIR      23   6  48 NW12      30.58F WCI  12
6HR MIN TEMP:  13; 6HR MAX TEMP:  23;

OSAGE BEACH    FAIR      27   7  43 N9        30.56S WCI  17

$$
MOZ051-052-059>065-051900-
...EAST CENTRAL MISSOURI...

CITY           SKY/WX    TMP DP  RH WIND       PRES   REMARKS
ST LOUIS INTL  PTSUNNY   22   8  55 NW13      30.57R WCI  10
6HR MIN TEMP:  16; 6HR MAX TEMP:  24;

SPIRIT OF STL  PTSUNNY   24   9  52 NW10      30.57S WCI  14
6HR MIN TEMP:  16; 6HR MAX TEMP:  24;

ST CHARLES     CLOUDY    20   8  60 NW8       30.58S WCI  10
6HR MIN TEMP:  13; 6HR MAX TEMP:  21;


$$
MOZ072>076-082>087-097>100-106>115-051900-
...SOUTH CENTRAL AND SOUTHEAST MISSOURI...

CITY           SKY/WX    TMP DP  RH WIND       PRES   REMARKS
CAPE GIRARDEAU FAIR      24   9  52 N14G23    30.54R WCI  12
6HR MIN TEMP:  19; 6HR MAX TEMP:  24;

FARMINGTON     FAIR      25   9  50 N12       30.53S WCI  14
6HR MIN TEMP:  18; 6HR MAX TEMP:  25;

POPLAR BLUFF   FAIR      30   8  39 CALM      30.52S
6HR MIN TEMP:  20; 6HR MAX TEMP:  30; 6HR PCP: TRACE;

WEST PLAINS    FAIR      28   5  37 N15G28    30.51R WCI  16
6HR MIN TEMP:  16; 6HR MAX TEMP:  28;


$$


USA.gov is the U.S. government's official web portal to all federal, state and local government web resources and services.